Weather History for Cooperstown, ND

Change the Weather History Date:

Wednesday, November 13, 2013

  Actual Average (KJMS) Record (KJMS)
Temperature  
Mean Temperature 38 °F 29 °F  
Max Temperature 51 °F 39 °F 72 °F (1939)
Min Temperature 24 °F 20 °F -11 °F (1919)
Degree Days  
Heating Degree Days 28 36  
Month to date heating degree days 419  
Since 1 July heating degree days 1386  
Cooling Degree Days 0 0  
Month to date cooling degree days 0  
Year to date cooling degree days 446  
Moisture  
Dew Point 31 °F    
Average Humidity 79    
Maximum Humidity 100    
Minimum Humidity 43    
Precipitation  
Precipitation 0.00 in 0.02 in 0.23 in (1997)
Month to date precipitation 0.33  
Year to date precipitation 18.07  
Sea Level Pressure  
Sea Level Pressure 29.87 in    
Wind  
Wind Speed 13 mph (West)    
Max Wind Speed 24 mph    
Max Gust Speed 30 mph    
Visibility 10 miles    
Events      
T = Trace of Precipitation, MM = Missing Value Source: NWS Daily Summary

Daily Weather History Graph

Daily Weather History Graph

Search for Another Location

Airport:

Trip Planner

Search our weather history database for the weather conditions in past years. The results will help you decide how hot, cold, wet, or windy it might be!

Date:

Astronomy

Nov. 13, 2013 Rise Set
Actual Time 7:34 AM CST 4:58 PM CST
Civil Twilight 7:01 AM CST 5:31 PM CST
Nautical Twilight 6:24 AM CST 6:08 PM CST
Astronomical Twilight 5:47 AM CST 6:44 PM CST
Moon 3:00 PM CST (11/13) 3:13 AM CST (11/13)
Length of Visible Light 10h 30m
Length of Day
9h 23m
Waxing Gibbous, 85% of the Moon is Illuminated
Nov 13
Waxing Gibbous
Nov 17
Full
Nov 25
Last Quarter
Dec 2
New
Dec 9
First Quarter

Hourly Weather History & Observations

Time (CST) Temp. Windchill Dew Point Humidity Pressure Visibility Wind Dir Wind Speed Gust Speed Precip Events Conditions
12:15 AM 26.6 °F 14.3 °F 26.6 °F 100% 30.10 in 10.0 mi SSW 16.1 mph 19.6 mph N/A   Clear
12:35 AM 26.6 °F 15.2 °F 26.6 °F 100% 30.08 in 10.0 mi SSW 13.8 mph 20.7 mph N/A   Clear
12:55 AM 26.6 °F 16.2 °F 24.8 °F 93% 30.07 in 10.0 mi SSW 11.5 mph 17.3 mph N/A   Clear
1:15 AM 26.6 °F 16.8 °F 24.8 °F 93% 30.05 in 10.0 mi SSW 10.4 mph - N/A   Clear
1:35 AM 26.6 °F 18.2 °F 24.8 °F 93% 30.05 in 10.0 mi SW 8.1 mph - N/A   Clear
1:55 AM 24.8 °F 13.4 °F 24.8 °F 100% 30.02 in 10.0 mi South 12.7 mph - N/A   Clear
2:15 AM 26.6 °F 15.7 °F 26.6 °F 100% 30.01 in 10.0 mi SSW 12.7 mph - N/A   Clear
2:35 AM 26.6 °F 16.2 °F 26.6 °F 100% 30.01 in 10.0 mi SSW 11.5 mph - N/A   Clear
2:55 AM 26.6 °F 15.2 °F 26.6 °F 100% 30.00 in 10.0 mi SSW 13.8 mph 17.3 mph N/A   Clear
3:15 AM 26.6 °F 16.8 °F 26.6 °F 100% 29.99 in 10.0 mi SSW 10.4 mph - N/A   Clear
3:35 AM 26.6 °F 17.5 °F 26.6 °F 100% 29.97 in 10.0 mi SSW 9.2 mph - N/A   Clear
3:55 AM 26.6 °F 15.2 °F 26.6 °F 100% 29.95 in 10.0 mi SSW 13.8 mph - N/A   Clear
4:15 AM 26.6 °F 16.8 °F 26.6 °F 100% 29.94 in 10.0 mi SSW 10.4 mph 16.1 mph N/A   Clear
4:35 AM 24.8 °F 14.6 °F 24.8 °F 100% 29.93 in 10.0 mi SW 10.4 mph - N/A   Clear
4:55 AM 26.6 °F 16.8 °F 26.6 °F 100% 29.92 in 10.0 mi SW 10.4 mph - N/A   Clear
5:15 AM 26.6 °F 16.8 °F 26.6 °F 100% 29.91 in 10.0 mi SW 10.4 mph - N/A   Clear
5:35 AM 28.4 °F 18.5 °F 28.4 °F 100% 29.89 in 10.0 mi SSW 11.5 mph - N/A   Clear
5:55 AM 26.6 °F 17.5 °F 26.6 °F 100% 29.89 in 10.0 mi SSW 9.2 mph - N/A   Clear
6:15 AM 26.6 °F 15.7 °F 26.6 °F 100% 29.87 in 10.0 mi SSW 12.7 mph - N/A   Clear
6:35 AM 28.4 °F 18.5 °F 28.4 °F 100% 29.87 in 10.0 mi SW 11.5 mph - N/A   Clear
6:55 AM 28.4 °F 17.5 °F 28.4 °F 100% 29.87 in 10.0 mi SW 13.8 mph - N/A   Clear
7:15 AM 28.4 °F 18.5 °F 28.4 °F 100% 29.87 in 10.0 mi SW 11.5 mph - N/A   Clear
7:35 AM 28.4 °F 19.1 °F 28.4 °F 100% 29.86 in 10.0 mi SW 10.4 mph - N/A   Clear
7:55 AM 28.4 °F 19.7 °F 28.4 °F 100% 29.86 in 10.0 mi SW 9.2 mph - N/A   Clear
8:15 AM 32.0 °F 23.6 °F 32.0 °F 100% 29.84 in 10.0 mi SW 10.4 mph - N/A   Clear
8:35 AM 32.0 °F 23.0 °F 32.0 °F 100% 29.84 in 10.0 mi WSW 11.5 mph - N/A   Clear
8:55 AM 35.6 °F 28.0 °F 32.0 °F 87% 29.84 in 10.0 mi WSW 10.4 mph - N/A   Clear
9:15 AM 37.4 °F 29.8 °F 33.8 °F 87% 29.84 in 10.0 mi WSW 11.5 mph - N/A   Clear
9:35 AM 41.0 °F 33.1 °F 35.6 °F 81% 29.84 in 10.0 mi West 15.0 mph - N/A   Clear
9:55 AM 44.6 °F 36.6 °F 37.4 °F 76% 29.83 in 10.0 mi West 19.6 mph - N/A   Clear
10:15 AM 48.2 °F - 37.4 °F 66% 29.83 in 10.0 mi West 18.4 mph 26.5 mph N/A   Clear
10:35 AM 48.2 °F - 37.4 °F 66% 29.83 in 10.0 mi West 21.9 mph 29.9 mph N/A   Clear
10:55 AM 48.2 °F - 37.4 °F 66% 29.83 in 10.0 mi WNW 24.2 mph 29.9 mph N/A   Clear
11:15 AM 48.2 °F - 35.6 °F 62% 29.84 in 10.0 mi WNW 20.7 mph 27.6 mph N/A   Clear
11:35 AM 48.2 °F - 35.6 °F 62% 29.84 in 10.0 mi West 21.9 mph 27.6 mph N/A   Clear
11:55 AM 50.0 °F - 35.6 °F 58% 29.82 in 10.0 mi West 23.0 mph 27.6 mph N/A   Clear
12:15 PM 50.0 °F - 35.6 °F 58% 29.83 in 10.0 mi WNW 15.0 mph 26.5 mph N/A   Clear
12:35 PM 50.0 °F - 35.6 °F 58% 29.83 in 10.0 mi WNW 16.1 mph 23.0 mph N/A   Clear
12:55 PM 50.0 °F - 35.6 °F 58% 29.82 in 10.0 mi WNW 15.0 mph - N/A   Clear
1:15 PM 50.0 °F - 32.0 °F 50% 29.82 in 10.0 mi WNW 13.8 mph 25.3 mph N/A   Clear
1:35 PM 50.0 °F - 32.0 °F 50% 29.82 in 10.0 mi WNW 12.7 mph - N/A   Clear
1:55 PM 50.0 °F - 32.0 °F 50% 29.81 in 10.0 mi WNW 12.7 mph 20.7 mph N/A   Clear
2:15 PM 51.8 °F - 32.0 °F 47% 29.82 in 10.0 mi WNW 16.1 mph 19.6 mph N/A   Clear
2:35 PM 50.0 °F - 28.4 °F 43% 29.83 in 10.0 mi WNW 18.4 mph - N/A   Clear
2:55 PM 50.0 °F - 30.2 °F 47% 29.84 in 10.0 mi WNW 16.1 mph 23.0 mph N/A   Clear
3:15 PM 50.0 °F - 30.2 °F 47% 29.83 in 10.0 mi WNW 11.5 mph - N/A   Clear
3:35 PM 48.2 °F - 32.0 °F 54% 29.83 in 10.0 mi WNW 10.4 mph - N/A   Clear
3:55 PM 48.2 °F - 32.0 °F 54% 29.83 in 10.0 mi WNW 10.4 mph - N/A   Clear
4:15 PM 46.4 °F 41.9 °F 32.0 °F 57% 29.83 in 10.0 mi WNW 9.2 mph - N/A   Clear
4:35 PM 44.6 °F 38.8 °F 32.0 °F 61% 29.84 in 10.0 mi West 11.5 mph - N/A   Clear
4:55 PM 42.8 °F 36.6 °F 32.0 °F 66% 29.83 in 10.0 mi West 11.5 mph - N/A   Clear
5:15 PM 41.0 °F 34.3 °F 30.2 °F 65% 29.83 in 10.0 mi WSW 11.5 mph - N/A   Clear
5:35 PM 41.0 °F 34.3 °F 30.2 °F 65% 29.84 in 10.0 mi West 11.5 mph - N/A   Clear
5:55 PM 39.2 °F 32.0 °F 32.0 °F 75% 29.84 in 10.0 mi West 11.5 mph - N/A   Clear
6:15 PM 39.2 °F 33.0 °F 32.0 °F 75% 29.84 in 10.0 mi WNW 9.2 mph - N/A   Clear
6:35 PM 39.2 °F 33.0 °F 32.0 °F 75% 29.84 in 10.0 mi WNW 9.2 mph - N/A   Clear
6:55 PM 37.4 °F 33.8 °F 32.0 °F 81% 29.84 in 10.0 mi NW 4.6 mph - N/A   Clear
7:15 PM 37.4 °F 30.3 °F 32.0 °F 81% 29.84 in 10.0 mi NW 10.4 mph - N/A   Clear
7:35 PM 39.2 °F 32.0 °F 32.0 °F 75% 29.83 in 10.0 mi NW 11.5 mph - N/A   Clear
7:55 PM 39.2 °F 32.5 °F 32.0 °F 75% 29.83 in 10.0 mi WNW 10.4 mph - N/A   Clear
8:15 PM 41.0 °F 34.7 °F 32.0 °F 70% 29.83 in 10.0 mi WNW 10.4 mph - N/A   Mostly Cloudy
8:35 PM 41.0 °F 33.9 °F 32.0 °F 70% 29.83 in 10.0 mi WNW 12.7 mph - N/A   Mostly Cloudy
8:55 PM 39.2 °F 32.5 °F 32.0 °F 75% 29.83 in 10.0 mi WNW 10.4 mph - N/A   Mostly Cloudy
9:15 PM 39.2 °F 33.6 °F 32.0 °F 75% 29.83 in 10.0 mi NW 8.1 mph - N/A   Overcast
9:35 PM 39.2 °F 33.6 °F 32.0 °F 75% 29.83 in 10.0 mi WNW 8.1 mph - N/A   Overcast
9:55 PM 37.4 °F 31.4 °F 32.0 °F 81% 29.84 in 10.0 mi West 8.1 mph - N/A   Overcast
10:15 PM 37.4 °F 30.8 °F 32.0 °F 81% 29.83 in 10.0 mi West 9.2 mph - N/A   Mostly Cloudy
10:35 PM 37.4 °F 33.8 °F 32.0 °F 81% 29.83 in 10.0 mi West 4.6 mph - N/A   Mostly Cloudy
10:55 PM 35.6 °F 29.9 °F 32.0 °F 87% 29.83 in 10.0 mi West 6.9 mph - N/A   Mostly Cloudy
11:15 PM 35.6 °F 31.7 °F 32.0 °F 87% 29.81 in 10.0 mi WSW 4.6 mph - N/A   Mostly Cloudy
11:35 PM 35.6 °F 30.7 °F 32.0 °F 87% 29.82 in 10.0 mi West 5.8 mph - N/A   Scattered Clouds
11:55 PM 35.6 °F 28.6 °F 32.0 °F 87% 29.81 in 10.0 mi West 9.2 mph - N/A   Scattered Clouds